This is the latest recevied weather packets stored in our database for station/object PA1CD-13. If no packets are shown the sender has not sent any weather packets the latest 1 day(s).
| Time | Temp. | Humidity | Pressure | Rain* | Wind** | Luminosity | Snow |
|---|---|---|---|---|---|---|---|
| 1777971521 | 11.67° C | 60% | 1011.4 hPa | 0 mm | 2.24 m/s, 39° | 756 W/m² | - |
| 1777971402 | 11.67° C | 60% | 1011.3 hPa | 0 mm | 2.24 m/s, 0° | 737 W/m² | - |
| 1777971283 | 11.67° C | 59% | 1011.4 hPa | 0 mm | 1.34 m/s, 73° | 223 W/m² | - |
| 1777971154 | 12.22° C | 59% | 1011.4 hPa | 0 mm | 2.68 m/s, 48° | 267 W/m² | - |
| 1777971028 | 12.22° C | 57% | 1011.4 hPa | 0 mm | 2.24 m/s, 65° | 732 W/m² | - |
| 1777970890 | 11.67° C | 57% | 1011.5 hPa | 0 mm | 0 m/s | 670 W/m² | - |
| 1777970765 | 11.67° C | 58% | 1011.5 hPa | 0 mm | 0.89 m/s, 0° | 672 W/m² | - |
| 1777970647 | 11.67° C | 59% | 1011.5 hPa | 0 mm | 0.89 m/s, 106° | 733 W/m² | - |
| 1777970527 | 11.67° C | 59% | 1011.6 hPa | 0 mm | 0 m/s | 260 W/m² | - |
| 1777970406 | 11.67° C | 59% | 1011.5 hPa | 0 mm | 1.79 m/s, 58° | 397 W/m² | - |
| 1777970285 | 11.67° C | 59% | 1011.6 hPa | 0 mm | 2.24 m/s, 80° | 397 W/m² | - |
| 1777970165 | 11.67° C | 58% | 1011.7 hPa | 0 mm | 1.79 m/s, 0° | 397 W/m² | - |
| 1777970045 | 11.67° C | 58% | 1011.7 hPa | 0 mm | 2.68 m/s, 0° | 185 W/m² | - |
| 1777969925 | 12.22° C | 58% | 1011.6 hPa | 0 mm | 0.89 m/s, 0° | 174 W/m² | - |
| 1777969807 | 12.22° C | 60% | 1011.6 hPa | 0 mm | 0.89 m/s, 89° | 225 W/m² | - |
| 1777969686 | 12.22° C | 60% | 1011.7 hPa | 0 mm | 0 m/s | 246 W/m² | - |
| 1777969566 | 12.22° C | 60% | 1011.7 hPa | 0 mm | 0 m/s | 274 W/m² | - |
| 1777969445 | 12.22° C | 59% | 1011.7 hPa | 0 mm | 0.45 m/s, 0° | 640 W/m² | - |
| 1777969325 | 12.22° C | 59% | 1011.8 hPa | 0 mm | 0.45 m/s, 107° | 341 W/m² | - |
| 1777969206 | 12.22° C | 59% | 1011.7 hPa | 0 mm | 1.79 m/s, 38° | 644 W/m² | - |
| 1777969086 | 12.22° C | 59% | 1011.8 hPa | 0 mm | 1.34 m/s, 75° | 663 W/m² | - |
| 1777968966 | 12.22° C | 58% | 1011.8 hPa | 0 mm | 0 m/s | 680 W/m² | - |
| 1777968846 | 12.22° C | 57% | 1011.8 hPa | 0 mm | 0.45 m/s, 0° | 385 W/m² | - |
| 1777968720 | 12.22° C | 57% | 1011.8 hPa | 0 mm | 0.89 m/s, 65° | 385 W/m² | - |
| 1777968600 | 12.22° C | 58% | 1011.8 hPa | 0 mm | 0.45 m/s, 0° | 754 W/m² | - |
* Rain latest hour (hover to see other rain measurements)
** Current wind speed in m/s (hover to see current wind gust speed)